Regional Weather Roundup
Issued by NWS Green Bay, WI

Home | Current Version | Previous Version | Text Only | Print | Product List | Glossary On
Versions: 1 2 3 4 5 6 7 8 9 10 11 12 13 14 15 16 17 18 19 20 21 22 23 24 25 26 27 28 29 30 31 32 33 34 35 36 37 38 39 40 41 42 43 44 45 46 47 48 49 50
000
ASUS43 KGRB 050611
RWRGRB

NORTH-CENTRAL AND NORTHEAST WISCONSIN REGIONAL WEATHER ROUNDUP
NATIONAL WEATHER SERVICE GREEN BAY WI
100 AM CDT SUN JUL 05 2015

WIZ005-009-010>012-018-019-050700-
NORTH CENTRAL WISCONSIN

CITY           SKY/WX    TMP DP  RH WIND       PRES   REMARKS
IRONWOOD       CLEAR     63  61  94 S3        29.93S
MANITOWISH WTR MOCLDY    59  59 100 CALM      30.00S FOG
ARBOR VITAE    CLEAR     62  60  93 SE5       30.01R FOG
EAGLE RIVER    CLEAR     63  63 100 CALM      30.02R FOG
LAND O LAKES     N/A     57  57  98 CALM      30.03R FOG
RHINELANDER    MOCLDY    62  60  93 CALM      30.03R FOG
PHILLIPS       CLEAR     64  63  96 CALM      29.99S
ANTIGO         MOCLDY    63  63  98 S6        30.03S FOG
TOMAHAWK       CLEAR     58  57  96 CALM      30.02R FOG
MERRILL        CLEAR     60  60  99 CALM      30.02R FOG
$$

WIZ013-073-050700-
NORTHEAST WISCONSIN

CITY           SKY/WX    TMP DP  RH WIND       PRES   REMARKS
IRON MOUNTAIN  CLEAR     62  58  86 SE3       30.01S FOG
MARINETTE      PTCLDY    63  57  82 S3        30.01R
OCONTO         MOCLDY    62  62 100 CALM      30.01R
$$

WIZ017-030-035>037-045-050700-
CENTRAL WISCONSIN

CITY           SKY/WX    TMP DP  RH WIND       PRES   REMARKS
MEDFORD        CLEAR     66  64  91 S6        30.02R
WAUSAU         CLEAR     68  64  87 S6        30.00R FOG
MOSINEE        CLEAR     64  63  94 S6        30.02S
MARSHFIELD     PTCLDY    65  61  87 CALM      30.02R FOG
WISC RAPIDS    CLEAR     65  61  87 CALM      30.02R
STEVENS POINT  CLEAR     65  60  86 S3        30.02S
WAUPACA        CLEAR     65  64  94 CALM      30.01R FOG
SHAWANO        CLOUDY    69  63  81 CALM      30.01R
CLINTONVILLE   PTCLDY    64  63  94 CALM      30.01R
$$

WIZ038-039-048-051-050700-
FOX VALLEY

CITY           SKY/WX    TMP DP  RH WIND       PRES   REMARKS
NWS GREEN BAY  CLEAR     64  61  90 CALM      30.02R FOG
APPLETON       CLEAR     68  59  73 SW3       30.03R
OSHKOSH        CLEAR     65  61  87 S6        30.01R
FOND DU LAC    CLEAR     65  61  87 S5        30.02R
$$

WIZ022-050-052-050700-
EAST CENTRAL WISCONSIN

CITY           SKY/WX    TMP DP  RH WIND       PRES   REMARKS
STURGEON BAY   CLEAR     61  55  82 SE8       30.05R
MANITOWOC      CLEAR     60  59  96 MISG      30.03R FOG
SHEBOYGAN      CLEAR     61  57  87 SW3       30.03R
$$

LMZ563-521-522-541>543-050700-
LAKESHORE

STATION/POSITION TIME  TEMP    WIND        PRES    VSBY  WAVE
                       AIR SEA DIR/SP/G                  HT/PER
                 (UTC) (F)     (DEG/KT/KT) (MB)    (MI)  (FT/S)
SHEBOYGAN LKSHOR 0600   63     200/  7/  8 1017.0R
KEWAUNEE LKSHORE 0500   61     130/  2/  4 1015.6R
ALGOMA MARINA    0511          160/  7/  8   N/A
NORTHPORT PIER   0500   62     180/  3/  7 1016.3R
N MID LAKE BUOY  0550   54 49  190/  6/  6 1017.2R         0
S GREEN BAY BUOY 0530   67 69  170/  6/  8 1017.4R
SISTER BAY LKSHO 0544   62     150/  9/ 12   N/A
CHAMBERS ISLAND  0500   64     140/  3/  7 1016.3R
MENOMINEE LKSHOR 0500   67     160/  9/ 11 1016.6R
$$


USA.gov is the U.S. government's official web portal to all federal, state and local government web resources and services.